Lid_Strength_Index
-1 -2 -2 -1 -1 -1 -0 -1 -0 -1 0 1 2 1 1 1 1 3 6 3 2 -1 0 3 3 5 5 7 8 8 11 13 12 12 10 10 10 9 8 7 6 5 6 4 3
-0 -0 -1 -0 -0 -1 -1 -1 -1 -1 -1 -0 0 1 0 1 4 5 2 0 -0 -0 3 4 6 5 6 7 9 10 12 11 10 10 10 10 11 10 9 8 8 6 4 4 3
-1 -2 -0 -0 0 -1 -0 -1 -1 -1 -1 -1 -1 -0 -0 1 7 7 1 0 0 -0 4 5 5 6 7 8 9 10 11 10 9 9 10 11 10 9 9 10 8 8 6 5 4
-1 -1 -1 -2 -2 -1 -1 -2 -1 -1 -1 -1 -1 -1 -1 2 16 4 -1 -1 -1 2 4 6 6 7 8 9 9 10 9 10 8 7 9 10 10 10 9 9 8 8 5 5 5
-1 -1 -1 -1 -1 -2 -2 -2 -2 -1 -1 -2 -1 -1 2 6 6 2 -1 -1 1 2 4 5 7 8 10 8 8 9 9 7 7 7 7 8 9 10 10 9 9 6 5 5 4
-1 -1 -1 -1 -1 -1 -2 -2 -2 -2 -2 -1 -2 -1 5 10 3 0 1 1 2 2 4 4 5 5 8 8 9 8 8 8 7 7 7 8 8 9 7 8 9 6 5 5 4
-1 -1 -1 -1 -1 -1 -1 -2 -2 -2 -2 -2 -2 1 6 7 2 1 1 2 2 2 4 3 3 5 6 9 6 8 11 9 8 8 8 7 10 10 6 9 9 7 6 5 4
-1 -1 -1 -1 -1 -1 -1 -2 -1 -2 -2 -2 -2 4 9 4 1 1 0 2 1 1 2 2 2 5 6 6 8 10 10 14 10 9 8 8 13 8 8 10 10 10 8 6 4
-1 -1 -1 -1 -1 -1 -1 -1 -2 -2 -1 -1 2 4 8 1 4 2 1 3 2 2 1 1 3 6 7 10 12 11 15 14 12 8 9 9 12 8 7 10 10 10 10 8 5
-1 -1 -1 -1 -1 -1 -1 -2 -2 -0 1 1 3 7 7 8 4 2 1 1 4 4 5 6 7 10 10 12 17 15 14 14 14 10 10 11 12 10 9 10 10 10 10 11 8
-1 -1 -1 -1 -1 -1 -1 1 5 7 5 8 8 8 8 4 2 3 2 3 4 6 10 8 11 13 12 10 11 12 13 14 12 9 11 11 11 10 9 8 9 9 9 9 11
-1 -1 -1 -1 -1 -1 0 4 5 6 9 6 6 5 5 4 7 4 2 7 8 11 9 10 13 10 9 9 11 11 13 13 11 10 11 11 12 10 10 9 8 8 8 8 8
-1 -1 -1 -1 -1 0 2 3 3 5 10 9 6 7 6 5 7 7 4 6 9 11 10 13 12 8 10 11 12 12 13 12 12 10 10 12 14 12 11 9 8 8 7 7 7
-1 -1 -1 -1 1 1 4 2 3 5 13 12 9 8 6 6 9 5 3 6 9 11 10 10 9 10 12 12 11 14 10 11 11 12 16 11 19 15 14 13 10 8 7 7 7
-1 -1 -1 -1 2 4 2 3 4 6 20 12 10 5 6 8 9 7 3 6 10 10 10 13 12 11 12 11 10 12 10 11 12 13 14 14 17 18 14 15 13 10 8 7 6
-1 -1 -1 0 1 1 1 3 6 16 21 15 10 10 9 9 10 7 7 6 7 10 11 12 10 10 11 9 9 9 11 12 12 13 18 15 15 18 16 14 14 12 9 7 6
-0 -1 1 -0 4 -0 2 5 15 19 14 15 13 10 11 11 10 9 10 11 12 15 15 13 12 10 9 11 9 10 13 20 19 19 20 14 16 17 14 13 12 11 10 8 7
-1 -1 1 2 -0 0 3 10 18 16 17 13 12 11 13 11 11 10 11 12 10 13 14 15 17 11 9 11 13 12 13 18 23 21 19 14 17 17 12 10 9 8 8 7 8
-1 1 3 2 1 1 8 15 15 14 14 13 13 14 13 11 11 11 12 12 10 10 14 15 15 11 10 9 9 13 15 11 16 18 19 16 15 13 11 11 9 9 8 8 7
2 3 4 2 2 5 10 13 13 11 11 12 16 13 15 13 13 13 13 10 11 9 11 14 16 13 11 9 9 11 10 16 15 21 22 18 16 16 14 12 9 10 9 9 8
3 7 5 2 3 10 13 12 12 10 10 13 15 14 15 14 14 13 14 12 9 10 8 12 14 14 11 13 14 13 14 13 13 16 20 20 17 13 12 11 11 10 9 9 8
4 10 3 2 10 11 12 11 10 11 10 11 11 12 13 14 14 13 14 12 10 9 12 11 12 18 14 11 9 10 12 12 16 18 16 16 16 10 10 10 9 8 8 7 7
7 8 2 3 13 12 11 11 10 11 11 11 12 12 13 13 15 13 13 11 11 10 11 10 14 22 19 16 13 13 12 11 12 13 16 18 16 10 10 10 9 10 9 8 7
7 11 7 6 8 10 12 12 12 9 10 11 12 11 13 14 13 14 13 11 10 9 7 7 13 15 18 17 14 15 13 12 13 16 15 15 14 12 10 10 9 8 8 7 6
8 9 8 12 11 10 10 10 12 12 10 10 11 11 13 15 14 14 13 11 10 8 8 10 17 13 13 13 13 13 13 12 14 13 16 14 13 11 10 9 8 7 7 7 7
9 9 8 10 8 10 10 11 11 11 11 11 12 11 11 14 13 14 12 12 12 10 10 9 14 13 16 12 12 14 12 12 13 13 13 13 13 9 8 7 8 7 7 7 7
6 5 8 9 10 11 11 11 11 9 10 9 10 11 12 12 10 9 9 8 9 10 11 11 13 15 20 14 14 19 14 13 12 11 11 14 11 9 9 9 7 7 7 7 7